GFSFLT2_prec_precacc_090.txt.gz
Total_Precipitation_Accumulation
0.92 0.85 0.81 0.79 0.76 0.62 0.50 0.40 0.39 0.47 0.39 0.34 0.27 0.21 0.19 0.17 0.16 0.16 0.18 0.23 0.31 0.38 0.49 0.55 0.61 0.69 0.77
0.95 0.87 0.75 0.60 0.45 0.32 0.27 0.25 0.23 0.30 0.23 0.14 0.12 0.12 0.12 0.13 0.13 0.12 0.11 0.13 0.16 0.18 0.19 0.22 0.25 0.30 0.39
0.45 0.38 0.35 0.34 0.35 0.31 0.27 0.20 0.14 0.16 0.11 0.09 0.08 0.08 0.08 0.07 0.06 0.06 0.06 0.04 0.04 0.03 0.05 0.10 0.21 0.21 0.20
0.29 0.22 0.17 0.13 0.10 0.10 0.07 0.04 0.02 0.01 0.01 0.00 0.00 0.00 0.00 0.00 0.00 0.00 0.00 0.00 0.00 0.01 0.02 0.04 0.10 0.23 0.19
0.18 0.12 0.07 0.04 0.04 0.03 0.03 0.02 0.00 0.00 0.00 0.00 0.00 0.00 0.00 0.00 0.00 0.00 0.00 0.01 0.01 0.03 0.05 0.08 0.12 0.23 0.41
0.08 0.03 0.01 0.00 0.00 0.01 0.03 0.06 0.05 0.00 0.00 0.00 0.00 0.00 0.00 0.00 0.00 0.00 0.00 0.01 0.01 0.02 0.06 0.10 0.11 0.13 0.27
0.01 0.00 0.00 0.01 0.06 0.08 0.07 0.09 0.04 0.00 0.01 0.00 0.00 0.00 0.00 0.00 0.00 0.00 0.00 0.00 0.01 0.02 0.04 0.07 0.08 0.09 0.12
0.00 0.00 0.02 0.03 0.07 0.13 0.05 0.03 0.01 0.00 0.00 0.01 0.00 0.00 0.00 0.00 0.00 0.00 0.00 0.00 0.01 0.02 0.04 0.05 0.07 0.08 0.09
0.01 0.01 0.01 0.01 0.00 0.01 0.02 0.04 0.03 0.00 0.00 0.00 0.00 0.00 0.00 0.00 0.00 0.00 0.00 0.00 0.00 0.01 0.01 0.02 0.04 0.05 0.04
0.00 0.00 0.00 0.00 0.00 0.00 0.01 0.12 0.09 0.11 0.00 0.10 0.04 0.03 0.15 0.01 0.00 0.00 0.00 0.00 0.00 0.00 0.01 0.01 0.03 0.06 0.07
0.00 0.00 0.00 0.00 0.00 0.00 0.00 0.10 0.24 0.18 0.00 0.29 0.34 0.04 0.23 0.07 0.00 0.00 0.00 0.00 0.00 0.00 0.00 0.01 0.04 0.10 0.21
0.00 0.00 0.00 0.00 0.00 0.00 0.00 0.00 0.04 0.14 0.03 0.12 0.57 0.16 0.35 0.21 0.02 0.00 0.00 0.00 0.00 0.02 0.01 0.02 0.04 0.05 0.11
0.00 0.00 0.00 0.00 0.00 0.00 0.00 0.00 0.00 0.00 0.00 0.00 0.18 0.19 0.38 0.38 0.18 0.03 0.03 0.01 0.00 0.01 0.05 0.08 0.10 0.08 0.12
0.01 0.01 0.00 0.00 0.00 0.00 0.01 0.01 0.04 0.00 0.00 0.00 0.01 0.17 0.36 0.16 0.23 0.17 0.02 0.08 0.04 0.06 0.12 0.08 0.06 0.11 0.17
0.02 0.02 0.01 0.00 0.00 0.00 0.02 0.06 0.10 0.02 0.00 0.00 0.00 0.01 0.06 0.11 0.27 0.05 0.01 0.01 0.04 0.12 0.19 0.18 0.11 0.24 0.21
0.07 0.07 0.05 0.03 0.04 0.02 0.02 0.06 0.07 0.02 0.02 0.00 0.01 0.07 0.03 0.01 0.06 0.13 0.13 0.02 0.01 0.06 0.16 0.49 0.20 0.10 0.07
0.18 0.14 0.12 0.09 0.04 0.04 0.03 0.05 0.04 0.02 0.01 0.01 0.11 0.33 0.44 0.10 0.00 0.02 0.36 0.25 0.06 0.06 0.14 0.28 0.35 0.19 0.17

GFSFLT2_prec_precacc_093.txt.gz
Total_Precipitation_Accumulation
0.92 0.85 0.82 0.79 0.76 0.62 0.50 0.40 0.39 0.47 0.39 0.34 0.27 0.21 0.19 0.17 0.16 0.16 0.18 0.23 0.31 0.38 0.49 0.55 0.61 0.69 0.77
0.96 0.87 0.75 0.60 0.45 0.32 0.27 0.25 0.23 0.30 0.23 0.14 0.12 0.12 0.12 0.13 0.13 0.12 0.11 0.13 0.16 0.18 0.19 0.22 0.25 0.30 0.39
0.48 0.38 0.35 0.34 0.35 0.31 0.27 0.20 0.14 0.16 0.11 0.09 0.08 0.08 0.08 0.07 0.06 0.06 0.06 0.04 0.04 0.03 0.05 0.10 0.21 0.21 0.21
0.29 0.22 0.17 0.13 0.10 0.10 0.07 0.04 0.02 0.01 0.01 0.00 0.00 0.00 0.00 0.00 0.00 0.00 0.00 0.00 0.00 0.01 0.02 0.04 0.10 0.23 0.20
0.18 0.12 0.07 0.04 0.04 0.03 0.03 0.02 0.00 0.00 0.00 0.00 0.00 0.00 0.00 0.00 0.00 0.00 0.00 0.01 0.01 0.03 0.05 0.08 0.12 0.23 0.44
0.08 0.03 0.01 0.00 0.00 0.01 0.03 0.06 0.05 0.00 0.00 0.00 0.00 0.00 0.00 0.00 0.00 0.00 0.00 0.01 0.01 0.02 0.06 0.10 0.11 0.13 0.28
0.02 0.00 0.00 0.01 0.06 0.08 0.07 0.09 0.04 0.00 0.01 0.00 0.00 0.00 0.00 0.00 0.00 0.00 0.00 0.00 0.01 0.02 0.04 0.07 0.08 0.09 0.12
0.07 0.06 0.05 0.03 0.07 0.13 0.05 0.03 0.01 0.00 0.00 0.01 0.00 0.00 0.00 0.00 0.00 0.00 0.00 0.00 0.01 0.02 0.04 0.05 0.07 0.08 0.09
0.04 0.06 0.06 0.04 0.00 0.01 0.02 0.04 0.03 0.00 0.00 0.00 0.00 0.00 0.00 0.00 0.00 0.00 0.00 0.00 0.00 0.01 0.01 0.02 0.04 0.05 0.04
0.01 0.00 0.00 0.00 0.00 0.00 0.01 0.12 0.09 0.11 0.00 0.10 0.04 0.03 0.15 0.01 0.00 0.00 0.00 0.00 0.00 0.00 0.01 0.01 0.03 0.06 0.07
0.00 0.00 0.00 0.00 0.00 0.00 0.00 0.10 0.24 0.18 0.00 0.29 0.34 0.04 0.23 0.07 0.00 0.00 0.00 0.00 0.00 0.00 0.00 0.01 0.04 0.10 0.21
0.00 0.00 0.00 0.00 0.00 0.00 0.00 0.00 0.04 0.14 0.03 0.12 0.57 0.16 0.35 0.21 0.02 0.00 0.00 0.00 0.00 0.02 0.01 0.02 0.04 0.05 0.11
0.00 0.00 0.00 0.00 0.00 0.00 0.00 0.00 0.00 0.00 0.00 0.00 0.18 0.19 0.38 0.38 0.18 0.03 0.03 0.01 0.00 0.01 0.05 0.08 0.10 0.08 0.12
0.01 0.01 0.00 0.00 0.00 0.00 0.01 0.01 0.04 0.00 0.00 0.00 0.01 0.17 0.36 0.16 0.23 0.17 0.02 0.08 0.04 0.06 0.12 0.08 0.06 0.11 0.17
0.05 0.05 0.03 0.01 0.00 0.00 0.02 0.06 0.10 0.02 0.00 0.00 0.00 0.01 0.06 0.11 0.27 0.05 0.01 0.01 0.04 0.12 0.19 0.18 0.11 0.24 0.21
0.13 0.13 0.13 0.09 0.07 0.03 0.02 0.06 0.07 0.02 0.02 0.00 0.01 0.07 0.03 0.01 0.06 0.13 0.13 0.02 0.01 0.06 0.16 0.49 0.20 0.10 0.07
0.28 0.26 0.24 0.19 0.12 0.09 0.04 0.05 0.04 0.02 0.01 0.01 0.11 0.33 0.44 0.10 0.00 0.02 0.36 0.25 0.06 0.06 0.14 0.28 0.35 0.19 0.17

GFSFLT2_prec_precacc_099.txt.gz
Total_Precipitation_Accumulation
1.00 0.91 0.86 0.87 0.89 0.77 0.74 0.55 0.47 0.52 0.43 0.36 0.27 0.21 0.19 0.17 0.16 0.16 0.18 0.23 0.31 0.38 0.49 0.55 0.62 0.69 0.77
1.22 1.04 0.85 0.67 0.51 0.38 0.33 0.31 0.27 0.33 0.25 0.15 0.13 0.12 0.12 0.13 0.13 0.12 0.11 0.13 0.16 0.18 0.19 0.22 0.25 0.30 0.39
0.84 0.73 0.63 0.59 0.57 0.49 0.39 0.26 0.16 0.17 0.11 0.09 0.08 0.08 0.08 0.07 0.06 0.06 0.06 0.04 0.04 0.03 0.05 0.10 0.21 0.21 0.21
0.52 0.44 0.37 0.35 0.35 0.32 0.27 0.14 0.04 0.02 0.01 0.00 0.00 0.00 0.00 0.00 0.00 0.00 0.00 0.00 0.00 0.01 0.02 0.04 0.10 0.23 0.20
0.40 0.30 0.25 0.21 0.21 0.20 0.19 0.13 0.06 0.01 0.00 0.00 0.00 0.00 0.00 0.00 0.00 0.00 0.00 0.01 0.01 0.03 0.05 0.08 0.12 0.23 0.44
0.15 0.10 0.08 0.10 0.13 0.16 0.21 0.21 0.13 0.02 0.01 0.00 0.00 0.00 0.00 0.00 0.00 0.00 0.00 0.01 0.01 0.02 0.06 0.10 0.11 0.13 0.28
0.06 0.04 0.05 0.06 0.13 0.17 0.14 0.14 0.08 0.02 0.02 0.00 0.00 0.00 0.00 0.00 0.00 0.00 0.00 0.00 0.01 0.02 0.04 0.07 0.08 0.09 0.13
0.14 0.13 0.16 0.17 0.21 0.23 0.08 0.04 0.03 0.01 0.00 0.01 0.00 0.00 0.00 0.00 0.00 0.00 0.00 0.00 0.01 0.02 0.04 0.05 0.07 0.08 0.09
0.24 0.30 0.34 0.35 0.26 0.21 0.22 0.19 0.12 0.02 0.01 0.01 0.00 0.00 0.00 0.00 0.00 0.00 0.00 0.00 0.00 0.01 0.02 0.02 0.04 0.05 0.04
0.08 0.13 0.19 0.21 0.20 0.12 0.11 0.24 0.22 0.26 0.12 0.18 0.06 0.03 0.15 0.01 0.00 0.00 0.00 0.00 0.00 0.00 0.01 0.01 0.03 0.06 0.07
0.04 0.09 0.13 0.15 0.11 0.08 0.07 0.17 0.30 0.24 0.07 0.38 0.38 0.05 0.23 0.07 0.00 0.00 0.00 0.00 0.00 0.00 0.00 0.01 0.04 0.10 0.21
0.02 0.06 0.11 0.14 0.11 0.07 0.06 0.08 0.09 0.16 0.03 0.13 0.58 0.16 0.35 0.21 0.02 0.00 0.00 0.00 0.00 0.02 0.01 0.02 0.04 0.05 0.11
0.03 0.04 0.06 0.09 0.15 0.17 0.14 0.05 0.03 0.02 0.01 0.00 0.18 0.19 0.38 0.38 0.18 0.03 0.03 0.01 0.00 0.01 0.05 0.08 0.10 0.08 0.12
0.05 0.05 0.07 0.12 0.15 0.17 0.13 0.05 0.07 0.01 0.00 0.00 0.01 0.17 0.36 0.16 0.23 0.17 0.02 0.08 0.04 0.06 0.12 0.08 0.06 0.11 0.17
0.14 0.14 0.15 0.15 0.13 0.10 0.14 0.14 0.15 0.05 0.01 0.00 0.00 0.01 0.06 0.11 0.27 0.05 0.01 0.01 0.04 0.12 0.19 0.18 0.11 0.24 0.21
0.25 0.23 0.27 0.24 0.22 0.20 0.15 0.16 0.14 0.05 0.05 0.02 0.02 0.07 0.03 0.01 0.06 0.13 0.13 0.02 0.01 0.06 0.16 0.49 0.20 0.10 0.07
0.41 0.39 0.39 0.35 0.33 0.28 0.21 0.19 0.16 0.11 0.09 0.07 0.14 0.34 0.44 0.10 0.00 0.02 0.36 0.25 0.06 0.06 0.14 0.28 0.35 0.19 0.17

GFSFLT2_prec_precacc_102.txt.gz
Total_Precipitation_Accumulation
1.13 1.03 0.99 0.97 0.94 0.80 0.78 0.62 0.58 0.68 0.52 0.41 0.30 0.22 0.19 0.17 0.16 0.16 0.18 0.23 0.31 0.38 0.49 0.55 0.62 0.69 0.77
1.27 1.09 0.90 0.71 0.56 0.42 0.38 0.41 0.44 0.56 0.39 0.21 0.15 0.13 0.13 0.13 0.13 0.12 0.11 0.13 0.16 0.18 0.19 0.22 0.25 0.30 0.39
0.87 0.76 0.68 0.67 0.69 0.61 0.48 0.36 0.31 0.38 0.22 0.13 0.10 0.08 0.09 0.07 0.06 0.06 0.06 0.04 0.04 0.03 0.05 0.10 0.21 0.21 0.21
0.53 0.46 0.39 0.38 0.42 0.42 0.39 0.29 0.21 0.18 0.12 0.04 0.02 0.01 0.00 0.00 0.00 0.00 0.00 0.00 0.00 0.01 0.02 0.04 0.10 0.23 0.20
0.41 0.31 0.27 0.24 0.24 0.23 0.23 0.23 0.24 0.19 0.12 0.04 0.01 0.00 0.00 0.00 0.00 0.00 0.00 0.01 0.01 0.03 0.05 0.08 0.12 0.23 0.44
0.16 0.11 0.09 0.11 0.15 0.22 0.31 0.39 0.36 0.18 0.14 0.11 0.05 0.01 0.00 0.00 0.00 0.00 0.00 0.01 0.01 0.02 0.06 0.10 0.11 0.13 0.28
0.08 0.06 0.06 0.06 0.14 0.18 0.16 0.17 0.12 0.07 0.13 0.16 0.13 0.09 0.02 0.00 0.00 0.00 0.00 0.00 0.01 0.02 0.04 0.07 0.08 0.09 0.13
0.16 0.16 0.18 0.20 0.23 0.26 0.12 0.09 0.08 0.07 0.08 0.09 0.05 0.06 0.04 0.01 0.00 0.00 0.00 0.00 0.01 0.02 0.04 0.05 0.07 0.08 0.09
0.26 0.36 0.42 0.43 0.32 0.27 0.30 0.29 0.22 0.08 0.04 0.02 0.02 0.03 0.01 0.00 0.00 0.00 0.00 0.00 0.00 0.01 0.02 0.02 0.04 0.05 0.04
0.08 0.16 0.26 0.32 0.36 0.21 0.16 0.28 0.28 0.33 0.20 0.25 0.11 0.08 0.17 0.01 0.00 0.00 0.00 0.00 0.00 0.00 0.01 0.01 0.03 0.06 0.07
0.04 0.10 0.17 0.27 0.31 0.31 0.28 0.33 0.39 0.27 0.09 0.42 0.48 0.20 0.32 0.09 0.01 0.00 0.00 0.00 0.00 0.00 0.00 0.01 0.04 0.10 0.21
0.03 0.06 0.13 0.19 0.25 0.30 0.37 0.41 0.35 0.32 0.12 0.18 0.61 0.22 0.42 0.25 0.06 0.01 0.00 0.00 0.00 0.02 0.01 0.02 0.04 0.05 0.11
0.03 0.05 0.07 0.11 0.21 0.35 0.44 0.44 0.43 0.40 0.29 0.15 0.24 0.21 0.41 0.43 0.20 0.04 0.03 0.01 0.00 0.01 0.05 0.08 0.10 0.08 0.12
0.06 0.05 0.09 0.14 0.20 0.28 0.36 0.35 0.39 0.31 0.29 0.22 0.13 0.23 0.38 0.17 0.25 0.17 0.02 0.08 0.04 0.06 0.12 0.08 0.06 0.11 0.17
0.16 0.16 0.16 0.18 0.19 0.17 0.24 0.33 0.43 0.32 0.21 0.15 0.14 0.10 0.11 0.13 0.28 0.05 0.01 0.01 0.04 0.12 0.19 0.18 0.11 0.24 0.21
0.27 0.28 0.31 0.29 0.27 0.29 0.26 0.27 0.32 0.25 0.26 0.21 0.11 0.14 0.06 0.02 0.06 0.13 0.13 0.02 0.01 0.06 0.16 0.49 0.20 0.10 0.07
0.43 0.42 0.45 0.46 0.46 0.38 0.32 0.31 0.27 0.27 0.28 0.24 0.28 0.41 0.48 0.12 0.00 0.02 0.36 0.25 0.06 0.06 0.14 0.28 0.35 0.19 0.17

GFSFLT2_prec_precacc_105.txt.gz
Total_Precipitation_Accumulation
1.14 1.06 1.03 1.03 1.02 0.88 0.82 0.64 0.58 0.69 0.55 0.45 0.34 0.28 0.27 0.26 0.24 0.20 0.19 0.23 0.31 0.38 0.49 0.55 0.62 0.69 0.77
1.44 1.19 1.00 0.78 0.62 0.47 0.41 0.43 0.45 0.60 0.47 0.36 0.29 0.21 0.20 0.20 0.16 0.13 0.12 0.13 0.16 0.18 0.19 0.22 0.25 0.30 0.39
0.94 0.80 0.71 0.69 0.72 0.65 0.52 0.39 0.33 0.44 0.33 0.30 0.33 0.34 0.26 0.14 0.08 0.07 0.06 0.04 0.04 0.03 0.05 0.10 0.21 0.21 0.21
0.56 0.46 0.39 0.38 0.42 0.43 0.40 0.31 0.23 0.21 0.20 0.14 0.13 0.10 0.08 0.05 0.01 0.00 0.00 0.00 0.00 0.01 0.02 0.04 0.10 0.23 0.20
0.42 0.33 0.28 0.25 0.24 0.23 0.24 0.25 0.28 0.22 0.16 0.11 0.07 0.04 0.01 0.01 0.00 0.00 0.00 0.01 0.01 0.03 0.05 0.08 0.12 0.23 0.44
0.16 0.11 0.09 0.11 0.15 0.22 0.32 0.42 0.41 0.22 0.17 0.16 0.10 0.04 0.01 0.00 0.00 0.00 0.00 0.01 0.01 0.02 0.06 0.10 0.11 0.13 0.28
0.08 0.06 0.06 0.07 0.14 0.18 0.17 0.18 0.13 0.09 0.20 0.25 0.19 0.14 0.06 0.02 0.00 0.00 0.00 0.00 0.01 0.02 0.04 0.07 0.08 0.09 0.13
0.16 0.16 0.19 0.21 0.24 0.27 0.14 0.10 0.09 0.08 0.13 0.19 0.13 0.13 0.08 0.06 0.04 0.01 0.00 0.00 0.01 0.02 0.04 0.05 0.07 0.08 0.09
0.26 0.36 0.43 0.43 0.33 0.29 0.34 0.34 0.26 0.12 0.08 0.08 0.07 0.12 0.10 0.06 0.03 0.01 0.00 0.01 0.00 0.01 0.02 0.02 0.04 0.05 0.04
0.08 0.16 0.26 0.32 0.36 0.23 0.16 0.31 0.32 0.38 0.26 0.32 0.17 0.13 0.26 0.09 0.06 0.03 0.01 0.01 0.00 0.00 0.01 0.01 0.03 0.06 0.07
0.04 0.10 0.17 0.27 0.31 0.31 0.29 0.38 0.45 0.31 0.11 0.48 0.56 0.28 0.44 0.15 0.04 0.03 0.01 0.00 0.00 0.00 0.00 0.01 0.04 0.10 0.21
0.03 0.06 0.13 0.19 0.25 0.30 0.38 0.47 0.48 0.49 0.26 0.31 0.72 0.31 0.52 0.36 0.13 0.06 0.03 0.01 0.00 0.02 0.01 0.02 0.04 0.05 0.11
0.03 0.05 0.07 0.11 0.21 0.36 0.47 0.50 0.57 0.59 0.53 0.50 0.58 0.47 0.60 0.55 0.29 0.12 0.15 0.10 0.02 0.01 0.05 0.08 0.10 0.08 0.12
0.06 0.06 0.09 0.14 0.21 0.29 0.38 0.40 0.47 0.45 0.50 0.52 0.47 0.61 0.75 0.51 0.49 0.31 0.11 0.17 0.11 0.09 0.12 0.08 0.06 0.11 0.17
0.16 0.17 0.16 0.18 0.19 0.18 0.27 0.38 0.50 0.42 0.37 0.38 0.45 0.46 0.45 0.41 0.56 0.30 0.11 0.04 0.06 0.14 0.19 0.18 0.11 0.24 0.21
0.27 0.29 0.32 0.30 0.28 0.29 0.29 0.32 0.38 0.34 0.40 0.43 0.39 0.50 0.48 0.37 0.31 0.36 0.31 0.09 0.02 0.06 0.16 0.49 0.20 0.10 0.07
0.43 0.42 0.46 0.47 0.48 0.39 0.34 0.37 0.35 0.35 0.41 0.44 0.54 0.70 0.79 0.39 0.21 0.19 0.52 0.37 0.09 0.07 0.14 0.28 0.35 0.19 0.17

GFSFLT2_prec_precacc_108.txt.gz
Total_Precipitation_Accumulation
1.16 1.08 1.07 1.08 1.06 0.93 0.85 0.65 0.59 0.70 0.56 0.46 0.34 0.29 0.29 0.31 0.35 0.36 0.38 0.41 0.38 0.40 0.50 0.55 0.62 0.69 0.77
1.57 1.35 1.13 0.90 0.71 0.53 0.45 0.47 0.47 0.62 0.51 0.39 0.31 0.22 0.22 0.25 0.25 0.27 0.28 0.27 0.22 0.20 0.20 0.22 0.25 0.30 0.39
1.03 0.90 0.86 0.87 0.88 0.74 0.56 0.42 0.34 0.45 0.35 0.31 0.34 0.37 0.32 0.22 0.19 0.19 0.18 0.13 0.07 0.03 0.05 0.10 0.21 0.21 0.21
0.58 0.49 0.44 0.44 0.48 0.47 0.42 0.31 0.23 0.22 0.21 0.15 0.15 0.14 0.16 0.20 0.16 0.11 0.09 0.08 0.04 0.01 0.02 0.04 0.10 0.23 0.20
0.42 0.33 0.28 0.25 0.24 0.23 0.24 0.25 0.28 0.23 0.18 0.12 0.08 0.07 0.06 0.10 0.12 0.10 0.07 0.05 0.02 0.03 0.05 0.08 0.12 0.23 0.44
0.16 0.12 0.09 0.11 0.15 0.22 0.32 0.43 0.41 0.23 0.20 0.19 0.13 0.08 0.02 0.01 0.02 0.02 0.01 0.01 0.01 0.02 0.06 0.10 0.11 0.13 0.28
0.08 0.06 0.07 0.07 0.15 0.19 0.17 0.19 0.14 0.09 0.21 0.28 0.25 0.22 0.12 0.07 0.04 0.01 0.01 0.01 0.01 0.02 0.04 0.07 0.08 0.09 0.13
0.16 0.16 0.19 0.21 0.24 0.28 0.14 0.11 0.10 0.08 0.14 0.21 0.16 0.21 0.18 0.18 0.19 0.08 0.05 0.02 0.01 0.02 0.04 0.05 0.07 0.08 0.09
0.26 0.36 0.43 0.43 0.33 0.29 0.34 0.34 0.26 0.13 0.09 0.09 0.08 0.14 0.16 0.16 0.18 0.23 0.18 0.10 0.03 0.01 0.02 0.02 0.04 0.05 0.04
0.08 0.16 0.26 0.32 0.36 0.23 0.17 0.31 0.33 0.40 0.27 0.33 0.18 0.13 0.27 0.13 0.15 0.20 0.19 0.17 0.10 0.04 0.02 0.02 0.03 0.06 0.07
0.04 0.10 0.17 0.27 0.31 0.31 0.30 0.39 0.46 0.32 0.13 0.50 0.57 0.30 0.46 0.17 0.06 0.11 0.10 0.11 0.11 0.06 0.02 0.01 0.04 0.10 0.21
0.03 0.06 0.13 0.19 0.25 0.30 0.38 0.47 0.49 0.50 0.27 0.34 0.72 0.31 0.54 0.38 0.16 0.11 0.12 0.11 0.10 0.08 0.05 0.04 0.05 0.05 0.11
0.03 0.05 0.07 0.12 0.21 0.36 0.47 0.50 0.57 0.59 0.54 0.53 0.61 0.48 0.62 0.58 0.31 0.14 0.20 0.19 0.13 0.11 0.13 0.13 0.11 0.08 0.12
0.06 0.06 0.09 0.15 0.21 0.29 0.38 0.40 0.48 0.45 0.51 0.53 0.51 0.65 0.79 0.53 0.51 0.35 0.19 0.29 0.29 0.25 0.27 0.20 0.14 0.14 0.17
0.16 0.17 0.17 0.18 0.19 0.18 0.28 0.39 0.50 0.42 0.37 0.39 0.47 0.51 0.53 0.49 0.62 0.39 0.26 0.19 0.21 0.34 0.42 0.39 0.25 0.30 0.22
0.28 0.29 0.32 0.30 0.28 0.29 0.30 0.33 0.40 0.34 0.41 0.44 0.44 0.58 0.60 0.51 0.45 0.47 0.46 0.26 0.17 0.17 0.31 0.67 0.34 0.17 0.09
0.43 0.43 0.47 0.47 0.48 0.40 0.35 0.39 0.37 0.36 0.42 0.47 0.60 0.81 0.92 0.51 0.34 0.34 0.67 0.57 0.31 0.23 0.27 0.39 0.44 0.25 0.19